Theta_e
310 310 310 310 310 310 311 311 311 311 312 312 312 313 313 317 318 319 324 325 324 322 321 323 323 324 324 324 325 326 325 327 331 338 343 338 345 346 345 344 342 343 343 343 343
310 310 310 310 310 311 311 311 311 311 312 312 312 313 314 318 319 322 329 326 323 321 322 324 325 325 324 325 325 327 328 333 332 337 341 337 334 340 346 344 342 342 341 341 341
310 310 310 310 310 311 311 311 311 312 312 312 313 313 315 319 322 328 326 322 321 321 322 324 325 325 325 326 330 332 331 335 340 344 337 336 337 339 341 342 340 341 339 339 338
313 312 312 311 311 311 311 311 312 312 312 313 313 314 317 320 328 326 319 319 321 320 321 324 326 326 323 323 330 334 338 344 343 345 344 340 340 339 339 339 339 336 336 336 335
316 316 316 316 315 314 313 312 312 313 313 313 314 316 319 323 327 328 319 320 321 321 323 325 325 325 322 327 331 332 340 343 339 339 339 339 338 338 339 338 337 336 335 335 335
316 316 316 315 314 314 314 313 313 313 313 314 314 317 319 327 324 322 320 321 323 324 324 325 325 325 326 331 335 335 337 337 335 337 341 339 338 336 337 336 334 333 334 333 333
316 316 318 318 317 315 313 313 313 314 314 314 317 319 319 323 325 324 322 322 323 323 324 324 325 324 325 331 334 333 333 335 332 333 335 338 339 338 336 334 332 331 330 330 330
316 318 319 319 319 318 315 313 313 314 314 317 319 320 323 327 324 324 323 322 324 323 323 323 324 324 324 334 334 333 336 337 332 332 333 332 335 336 336 333 331 329 328 328 328
318 318 318 319 320 318 315 315 315 316 319 321 323 329 328 327 321 324 323 323 324 323 323 323 323 324 324 330 332 334 337 336 336 333 333 332 339 336 336 332 331 328 327 327 326
317 318 319 320 322 321 320 321 321 322 324 323 324 326 327 326 325 323 323 324 324 324 324 324 324 321 319 330 332 336 335 334 336 333 332 332 335 339 333 332 330 329 328 326 324
317 319 320 321 323 323 324 325 325 323 323 327 331 327 326 323 322 323 324 324 325 325 323 326 320 319 323 331 330 334 334 336 334 333 333 338 340 335 332 332 330 330 329 325 326
320 321 322 322 323 324 325 327 330 327 328 326 326 329 326 326 325 325 324 325 325 324 325 325 325 330 328 327 328 332 331 334 333 333 334 330 330 334 331 333 331 331 329 327 327
320 322 322 323 323 325 325 327 326 326 328 329 326 326 326 327 327 326 326 326 325 325 327 329 331 331 329 328 329 329 329 328 329 329 334 333 333 331 332 332 331 332 330 329 327
315 321 323 323 322 323 326 327 326 327 329 328 325 327 326 327 327 327 327 327 328 329 329 330 330 328 327 330 328 328 330 331 330 328 329 333 338 335 330 329 332 331 328 326 325
314 316 322 323 324 325 326 326 327 329 337 326 325 327 326 326 327 326 327 327 329 329 328 330 331 330 329 329 329 329 327 328 328 327 331 336 339 336 329 330 332 330 326 325 323
314 315 316 319 322 324 325 326 328 333 342 328 327 326 325 327 327 328 328 328 329 333 331 331 332 331 331 331 329 328 328 327 326 325 335 336 336 336 335 334 330 324 323 323 322
314 315 315 316 321 325 325 327 331 339 334 330 326 325 324 327 327 329 330 330 330 332 331 334 333 332 331 332 329 328 325 326 325 325 337 334 333 335 333 331 329 325 324 324 322
314 314 316 318 324 325 326 328 337 336 337 334 326 325 326 329 329 329 333 333 331 330 329 331 337 333 333 332 330 327 324 323 325 326 327 334 339 332 330 330 329 327 324 323 322
314 315 317 321 325 324 325 332 337 337 331 330 327 327 330 333 332 331 335 334 332 331 334 332 335 333 332 329 326 327 326 325 324 324 333 335 332 331 330 329 327 324 322 321 319
323 328 327 329 325 324 328 333 337 332 330 331 336 336 336 334 332 335 337 334 334 333 331 333 333 331 327 331 328 326 326 327 326 332 335 334 330 333 330 326 322 323 320 319 318
324 330 329 324 323 324 331 336 334 329 330 333 333 335 335 334 333 335 336 332 331 332 332 331 330 330 328 329 327 325 325 327 327 330 333 334 332 326 325 322 319 319 318 316 314
328 333 325 322 325 327 329 334 328 329 329 331 331 333 332 332 332 335 332 331 329 331 333 331 329 335 330 330 328 325 325 326 328 330 329 329 331 324 323 322 320 319 318 314 313
325 332 324 324 332 333 332 330 330 330 330 331 331 329 329 331 331 333 331 328 328 330 331 331 332 328 331 330 330 327 324 325 324 325 328 329 331 323 322 320 319 319 317 313 312
330 335 325 324 327 330 332 330 330 328 327 327 327 326 328 330 329 328 331 329 328 328 329 331 331 331 329 329 327 328 325 324 323 322 328 329 329 326 321 319 319 315 314 313 312
334 332 331 334 331 333 329 330 330 329 327 326 328 331 331 333 333 333 332 328 329 328 329 331 335 330 327 325 325 325 325 324 323 323 327 326 324 322 319 318 318 316 313 312 311
331 331 331 329 327 331 330 332 332 330 330 331 330 331 331 329 329 330 330 334 334 332 331 331 330 333 331 329 328 327 324 324 325 323 321 322 322 322 320 319 317 315 314 312 311
325 331 335 328 329 330 329 330 332 330 328 331 332 330 329 327 326 325 326 328 329 332 331 330 329 333 332 330 329 328 325 323 323 321 320 320 319 320 320 318 316 314 313 312 311
Wind_Speed
8 8 8 9 9 8 7 7 7 7 7 7 9 10 11 12 7 5 4 6 5 5 7 6 12 12 9 16 18 20 4 3 5 8 6 12 13 22 17 28 10 15 26 27 27
7 7 7 7 7 7 6 6 6 5 5 6 8 10 9 11 7 9 6 8 10 7 7 11 17 17 22 19 14 6 3 4 17 15 20 22 23 23 11 14 22 23 26 23 22
6 6 6 6 6 6 5 4 4 4 5 6 8 9 9 8 9 6 4 7 7 7 4 11 12 19 21 22 7 2 2 11 29 39 39 22 13 5 15 11 10 13 23 21 24
4 4 4 4 4 4 3 3 3 3 4 6 7 7 8 6 3 6 4 6 7 7 9 13 11 19 8 7 1 5 27 35 23 22 22 15 14 21 19 11 14 17 22 24 26
4 4 4 4 4 3 3 3 2 3 3 5 7 6 5 5 11 9 2 4 5 7 12 14 22 25 8 4 8 12 22 42 38 32 34 29 21 20 19 17 18 18 21 24 25
4 4 3 3 3 3 3 3 2 2 3 4 5 6 5 6 3 4 4 4 2 9 15 22 12 22 12 15 16 19 36 25 28 33 18 22 11 10 12 21 24 24 23 19 17
3 2 2 3 3 2 2 2 2 2 3 3 4 7 8 10 7 2 5 4 5 14 15 15 15 18 21 10 14 31 8 6 16 14 2 4 8 7 13 22 22 19 17 16 16
1 1 2 3 3 3 1 1 1 3 3 3 4 7 8 5 6 10 4 7 6 8 9 10 15 16 15 16 6 8 8 6 7 3 7 5 3 13 16 23 20 15 14 16 18
1 1 2 2 2 1 1 2 3 4 2 3 3 7 11 7 10 11 11 11 10 7 8 9 9 13 20 5 4 4 3 2 8 12 7 4 5 21 21 23 17 16 14 17 19
2 1 1 2 1 1 2 2 4 2 3 6 7 9 8 12 7 9 12 13 9 10 14 12 7 2 6 3 6 6 7 6 7 4 14 14 14 24 27 24 15 14 14 14 17
2 0 1 3 3 1 2 1 4 3 10 9 6 8 5 3 6 8 9 9 9 14 7 16 3 7 12 4 7 19 11 11 11 12 6 23 19 24 26 14 17 12 13 12 14
4 2 0 2 2 1 3 5 8 8 9 19 18 19 4 8 10 10 11 11 15 10 13 5 5 6 8 10 4 8 5 4 5 6 17 23 20 14 13 14 10 15 13 11 10
7 5 3 2 2 2 6 5 6 14 5 11 15 14 8 9 14 15 14 19 14 12 14 6 5 6 4 6 9 7 7 7 6 2 16 21 12 6 8 10 7 12 13 14 13
7 10 7 5 6 6 13 6 10 11 2 5 8 8 9 12 2 4 9 14 10 7 1 6 7 2 6 9 8 7 8 9 10 8 5 1 5 7 5 5 7 16 16 15 12
7 10 10 10 7 9 10 3 15 3 2 10 9 8 10 11 11 7 6 11 7 9 6 8 16 14 12 6 4 5 11 10 14 12 5 5 7 3 5 3 3 13 16 14 9
6 7 10 11 12 5 7 12 9 3 4 4 9 7 9 13 2 9 3 3 6 7 9 6 15 7 1 13 10 9 11 10 6 5 5 8 7 7 4 3 6 16 15 10 5
5 7 9 12 6 9 12 6 2 2 1 5 6 7 9 5 2 2 5 4 6 6 7 2 5 5 10 9 10 10 8 4 6 5 3 4 12 3 5 6 15 14 12 7 12
4 5 7 11 2 13 4 4 2 6 12 15 5 8 6 7 4 6 7 5 12 10 5 6 3 2 3 3 4 6 6 3 4 3 3 9 6 1 4 15 18 14 14 12 8
3 2 6 6 2 4 5 1 4 6 7 5 4 5 6 12 8 4 10 12 5 7 4 5 7 5 7 5 7 6 5 5 1 6 6 4 3 3 5 11 16 15 16 10 11
1 5 7 4 5 2 0 4 5 4 10 10 5 6 7 4 4 5 8 5 6 13 14 6 3 6 11 5 10 7 5 7 5 3 4 4 2 2 4 8 11 14 13 11 13
6 6 3 7 4 3 2 5 3 6 11 7 10 7 6 2 1 8 1 8 10 9 14 5 5 7 6 5 6 6 6 6 2 5 3 2 1 4 7 13 10 15 15 14 18
6 3 3 9 3 4 3 3 5 3 6 7 10 8 7 8 6 6 7 6 12 11 3 6 2 3 6 8 7 8 7 5 4 2 4 4 1 7 16 17 21 15 10 15 12
8 7 1 5 1 4 6 5 13 14 8 8 7 7 5 2 3 6 7 11 13 6 3 5 3 3 3 8 6 6 7 7 5 6 5 4 3 13 19 20 17 10 17 20 15
5 4 3 2 12 8 1 5 6 11 12 12 7 10 4 6 2 3 6 6 12 10 9 7 3 1 3 3 2 6 8 7 6 4 9 6 8 4 9 7 12 21 22 19 17
4 2 5 3 8 9 9 3 8 4 2 12 8 12 8 8 8 10 9 4 7 7 4 4 4 6 5 6 6 9 13 14 10 9 6 5 8 7 8 13 16 13 21 17 16
5 7 11 4 10 9 8 8 9 10 10 7 7 8 12 7 5 7 7 6 3 5 3 2 3 5 2 7 19 17 15 13 12 12 11 8 5 14 19 17 14 19 18 17 14
5 3 4 5 4 4 1 7 11 9 13 26 19 12 11 8 11 12 12 5 2 3 2 2 2 3 4 3 5 8 11 12 13 11 8 7 4 11 14 18 18 20 18 15 12
Wind_Direction
287 282 280 280 279 277 278 282 283 288 297 300 307 304 311 305 283 256 225 299 304 304 297 303 301 285 289 260 264 269 21 246 87 146 119 172 110 103 95 95 105 107 93 100 117
287 281 280 278 279 277 278 282 292 302 302 306 303 302 316 309 270 241 280 270 285 276 303 311 316 315 246 256 260 148 79 357 141 115 164 144 122 146 121 99 64 73 79 103 113
288 285 280 280 279 277 284 295 298 301 303 302 300 309 321 316 318 282 276 276 243 263 275 303 312 304 295 283 199 24 248 80 107 123 126 114 117 99 116 70 77 92 86 98 91
307 301 292 294 293 296 305 300 296 303 300 298 304 314 317 315 6 297 270 235 232 259 274 293 305 296 290 285 57 71 65 74 72 96 113 104 101 72 83 99 105 101 103 97 88
303 302 302 309 314 313 307 292 300 295 296 295 305 323 318 304 280 275 200 176 205 269 289 292 287 287 241 252 79 62 70 76 64 62 76 85 80 99 103 105 102 97 89 89 90
305 303 311 323 320 302 295 287 284 285 283 287 303 324 321 275 242 295 176 183 261 303 322 319 344 335 3 63 53 81 76 72 46 50 84 93 95 13 114 114 101 96 96 99 99
307 307 11 5 1 345 318 283 264 258 253 263 296 316 286 260 255 325 198 207 306 310 313 344 348 338 329 90 55 46 40 102 31 71 120 354 54 77 144 115 104 104 105 107 102
249 333 344 342 340 326 322 256 211 226 225 267 320 326 276 296 216 234 235 249 295 284 299 325 320 312 312 119 44 59 64 17 290 13 121 84 261 148 154 114 103 97 95 100 98
246 307 331 338 339 313 154 150 176 204 260 278 296 317 280 253 214 206 223 234 226 242 257 274 302 278 292 89 43 64 134 247 291 287 103 114 226 170 159 119 116 115 114 109 108
261 305 354 23 36 187 160 165 190 249 295 285 251 300 248 235 182 185 220 240 278 257 255 236 245 259 313 119 233 138 125 240 233 253 210 179 239 170 128 108 120 116 118 117 117
242 212 40 46 51 84 146 228 278 262 235 223 271 263 95 126 143 198 219 222 239 260 269 241 142 228 248 221 276 136 150 179 232 250 49 96 85 67 90 122 133 129 131 139 118
222 208 254 0 19 284 296 273 303 312 290 268 276 266 161 195 183 199 194 218 230 244 250 284 230 336 333 340 315 109 85 202 169 219 106 87 85 93 106 117 141 148 151 146 119
215 214 220 270 305 230 301 323 353 318 294 295 230 227 228 222 235 182 200 232 245 259 255 156 210 245 318 30 27 60 36 351 327 297 98 117 82 71 70 104 144 133 126 132 132
211 211 221 246 280 278 286 346 356 349 0 219 219 210 227 249 91 165 237 249 285 230 33 130 199 243 324 52 44 360 6 336 326 334 250 248 107 52 73 53 66 111 112 120 128
216 209 218 241 265 288 340 319 335 337 326 163 201 211 218 240 148 201 272 322 340 347 54 41 42 30 41 7 343 13 359 344 318 305 110 19 82 79 354 68 126 122 126 124 137
219 211 216 240 254 27 0 332 319 29 265 250 153 179 248 237 244 149 224 339 315 25 78 79 64 57 194 346 43 14 12 326 3 3 62 347 110 34 18 121 110 121 130 140 147
212 209 211 223 222 342 355 313 4 168 184 238 167 198 225 150 86 221 173 54 53 27 349 49 36 343 10 356 7 7 25 326 11 2 81 117 62 100 155 110 136 140 148 106 84
203 211 220 213 326 4 316 5 100 284 265 288 166 222 202 135 108 20 44 28 43 31 346 18 1 110 304 219 338 33 69 100 316 295 190 16 61 266 115 135 137 139 118 125 110
172 207 233 155 47 11 309 277 234 245 346 8 277 302 88 38 12 57 52 19 58 64 37 357 1 116 324 34 54 347 22 274 221 274 78 105 106 323 185 133 130 116 110 101 90
198 294 258 198 179 219 94 239 276 322 323 6 47 72 25 30 56 68 3 313 17 12 3 325 22 6 353 128 50 80 355 14 351 14 82 72 36 133 134 121 100 118 115 107 116
358 338 155 171 214 222 217 270 250 34 350 44 22 41 65 10 97 68 77 33 16 345 43 25 66 314 21 50 30 17 24 10 37 61 118 106 75 201 135 132 143 107 112 88 80
346 326 159 158 167 208 236 203 355 82 40 40 62 39 37 37 13 116 78 60 40 39 14 323 93 332 76 47 22 70 57 64 79 317 108 116 68 118 104 115 110 110 109 102 96
330 261 190 182 322 303 236 138 56 13 49 32 52 27 50 77 29 67 112 82 61 57 41 319 11 10 346 13 355 63 53 56 48 43 7 108 137 83 109 118 124 131 122 99 88
331 344 74 206 280 273 353 80 75 29 39 23 28 350 4 40 121 313 117 87 76 82 34 18 11 194 151 86 321 85 84 67 93 63 70 97 120 116 121 130 123 90 104 98 82
343 7 1 1 334 358 37 221 140 131 11 59 1 53 46 25 27 37 70 125 151 115 61 77 30 4 60 37 60 92 57 51 52 60 88 110 79 85 105 99 87 80 103 92 76
31 7 347 21 336 6 10 19 66 64 54 42 47 58 79 58 50 16 29 25 32 47 68 42 336 21 63 15 69 31 43 45 60 57 72 77 83 115 114 102 89 92 85 88 67
33 357 338 297 306 341 26 39 58 86 65 54 43 58 45 18 360 338 323 304 334 139 87 78 57 65 315 304 108 50 28 42 72 59 76 58 348 52 85 80 85 85 82 76 79